651  
ASUS41 KBOX 071904  
RWRBOX  
 
REGIONAL WEATHER ROUNDUP  
NATIONAL WEATHER SERVICE BOSTON/NORTON MA  
300 PM EDT TUE JUL 07 2020  
 
NOTE: "FAIR" INDICATES FEW OR NO CLOUDS BELOW 12,000 FEET WITH NO  
SIGNIFICANT WEATHER AND/OR S TO VISIBILITY
.  
 
MAZALL-072000-  
EASTERN MASSACHUSETTS  
 
CITY SKY/WX TMP DP RH WIND PRES REMARKS
 
BOSTON PTSUNNY 80 54 40 S13 30.13S  
BEVERLY PTSUNNY 71 59 65 SE17 30.13F  
LAWRENCE MOSUNNY 79 63 57 VRB7 30.13F  
BEDFORD PTSUNNY 82 55 39 S13 30.11F  
BLUE HILL N/A 76 52 43 S15G25 30.14  
NORWOOD PTSUNNY 80 54 40 S13 30.13S  
MARSHFIELD MOSUNNY 72 61 68 SE12 30.15S  
PLYMOUTH MOSUNNY 73 53 49 S12G20 30.16S  
TAUNTON MOSUNNY 77 51 40 S10G20 30.15S  
NEW BEDFORD MOSUNNY 74 53 48 SE15 30.16S  

 
 
MAZALL-072000-  
CAPE COD AND THE ISLANDS  
 
CITY SKY/WX TMP DP RH WIND PRES REMARKS
 
FALMOUTH NOT AVBL  
HYANNIS SUNNY 69 58 67 S9G17 30.17S  
CHATHAM MOSUNNY 65 56 72 S8 30.20F  
PROVINCETOWN MOSUNNY 70 59 68 S12G20 30.18S  
NANTUCKET SUNNY 63 57 81 SE14 30.19F  
MARTHAS VNYRD SUNNY 67 59 75 SE13 30.18S  

 
 
MAZALL-072000-  
CENTRAL AND WESTERN MASSACHUSETTS  
 
CITY SKY/WX TMP DP RH WIND PRES REMARKS
 
WORCESTER PTSUNNY 76 62 62 SW10 30.14F  
FITCHBURG MOSUNNY 83 59 44 S14 30.11F  
ORANGE MOSUNNY 78 63 59 SW10G17 30.12F  
SPRINGFIELD CLOUDY 75 63 66 S5 30.12S  
WESTFIELD CLOUDY 75 65 70 S8 30.12S  
NORTH ADAMS PTSUNNY 79 64 60 SW8 30.09F  
PITTSFIELD CLOUDY 75 65 70 S8 30.11F  

 
 
RIZALL-072000-  
RHODE ISLAND  
 
CITY SKY/WX TMP DP RH WIND PRES REMARKS
 
PROVIDENCE PTSUNNY 71 61 70 SE14 30.16F  
NEWPORT PTSUNNY 67 58 72 SE12 30.17S  
BLOCK ISLAND CLOUDY 68 62 81 SE14 30.18S  
SMITHFIELD CLOUDY 70 62 76 VRB6 30.16S  
WESTERLY CLOUDY 71 60 68 SE12 30.17F  

 
 
CTZALL-072000-  
CONNECTICUT  
 
CITY SKY/WX TMP DP RH WIND PRES REMARKS
 
BRADLEY INTL CLOUDY 75 63 66 S9 30.13S  
HARTFORD CLOUDY 74 65 73 S10 30.13S  
BRIDGEPORT CLOUDY 71 67 87 E13 30.13F  
DANBURY CLOUDY 71 67 87 SE12 30.14F  
GROTON CLOUDY 67 62 84 SE12 30.16S  
NEW HAVEN CLOUDY 71 66 84 E8 30.14F  
CHESTER CLOUDY 70 64 83 SE6 30.16F  
MERIDEN CLOUDY 72 64 76 S8 30.14S  
WILLIMANTIC CLOUDY 72 64 76 S7 30.15S  
OXFORD CLOUDY 68 66 93 SE10 30.16S FOG  

 
 
MEZ002-015-021-024-NHZ003-005-008-011-012-014-VTZ005-008-072000-  
NORTHERN NEW ENGLAND  
 
CITY SKY/WX TMP DP RH WIND PRES REMARKS
 
PORTLAND ME MOSUNNY 71 56 58 S13G21 30.14F  
BANGOR ME MOSUNNY 74 60 61 S15 30.12F  
CONCORD NH MOSUNNY 82 58 43 S12 30.09F  
MANCHESTER NH PTSUNNY 83 55 38 S12 30.08F  
NASHUA NH MOSUNNY 83 58 42 SE8 30.11F  
PORTSMOUTH NH PTSUNNY 72 58 62 SE14 30.12F  
JAFFREY NH PTSUNNY 79 61 53 S9 30.12F  
KEENE NH PTSUNNY 79 65 62 S9G17 30.10F  
BURLINGTON VT MOSUNNY 87 64 46 S13G21 29.98F  
MT. WASHINGTON FOG 57 52 82 SW12G17 N/A VSB 1/4  

 
 
NYZ052-076-072000-  
EASTERN NEW YORK  
 
CITY SKY/WX TMP DP RH WIND PRES REMARKS
 
ALBANY MOSUNNY 84 64 50 SE17 30.05F  
NEW YORK CITY PTSUNNY 76 67 73 NE15 30.09F  

 
 
ANZALL-072000-  
MARINE OBSERVATIONS  
 
STATION/POSITION TIME TEMP WIND PRES VSBY WAVE
 
AIR SEA DIR/SP/G HT/PER  
(UTC) (F) (DEG/KT/KT) (MB) (MI) (FT/S)  
BOSTON BUOY NOT AVBL  
BUZZARDS BAY 1800 150/ 10/ 11 1023.1S  
NANTUCKET SOUND NOT AVBL  
MASS BAY-STELLWA 1804 64 170/ 16/ 17 1018.6F 1 7/8 4/ 8  
ISLE OF SHOALS 1800 63 150/ 19/ 20 1020.3F  
S OF BLOCK IS 1826 67 N/A 2/ 8  

 
   
.....................KEY......................
 
 
SKY/WX - SKY CONDITION/PRESENT WEATHER  
TMP - TEMPERATURE IN FAHRENHEIT  
DWPT - DEWPOINT IN FAHRENHEIT  
RH - RELATIVE HUMIDITY IN PERCENT  
WIND - DIRECTION AND SPEED IN MPH  
PRES - MEAN SEA LEVEL PRESSURE IN INCHES OF HG  
WCI - WIND CHILL INDEX  
VSB - VISIBILITY IN MILES  
HX - HEAT INDEX  
TC - TEMPERATURE IN CELSIUS  
VRB - VARIABLE WIND DIRECTION  
N/A - NOT AVAILABLE  
 
 
CLICK HERE TO GO TO PREVIOUS BULLETINS.

The Nexlab MA Page
The Nexlab RI Page
The Nexlab NH Page
The Nexlab CT Page Main Text Page